sat.trackr.live / text

‹ back to catalog

STARLINK-30920

NORAD 58378 · 2023-178E

PAYLOAD ACTIVE UNKNOWN

§ Identity

Operator
Country
US
Launch date
2023-11-20
Launch site
AFWTR
Launch vehicle
Mass (kg)
RCS (m²)

Purposes: comms

External: N2YO · Heavens-Above · Gunter

§ Orbital elements

Epoch: 2026-05-24T21:04:32.445984Z

Period
94.11 min
Inclination
53.1604°
Eccentricity
0.0000942
Mean motion
15.30191863 rev/d
Perigee alt
474.6 km
Apogee alt
475.9 km
Semi-major
6,853.4 km
B*
1.6977e-5
RAAN
354.6168°
Arg perigee
95.2194°
Mean anomaly
264.8914°
Rev number
14,173

§ Raw data

STARLINK-309201 58378U 23178E   26144.87815331  .00000144  00000+0  16977-4 0  99972 58378  53.1604 354.6168 0000942  95.2194 264.8914 15.30191863141737

JSON: /api/v1/satellites/58378 · /tle

For live sub-satellite position, see the globe view (requires WebGL).

§ Visibility from observer

Set your observer location to see the next 7 days of passes ≥ 10°. The values pass through the URL so the page stays shareable.

No JS? Fill the form by hand. The geolocation button needs JavaScript.